Regional Weather Roundup
Issued by NWS

Home | Current Version | Previous Version | Text Only | Print | Product List | Glossary Off
Versions: 1 2 3 4 5 6 7 8 9 10 11 12 13 14 15 16 17 18 19 20 21 22 23 24 25 26 27 28 29 30 31 32 33 34 35 36 37 38 39 40 41 42 43 44 45 46 47 48 49 50

000
ASUS43 KFSD 210610
RWRSD

WEATHER ROUNDUP FOR SOUTH DAKOTA
NATIONAL WEATHER SERVICE SIOUX FALLS SD
100 AM CDT SAT OCT 21 2017

NOTE: "FAIR" INDICATES FEW OR NO CLOUDS BELOW 12,000 FEET WITH NO
SIGNIFICANT WEATHER AND/OR OBSTRUCTIONS TO VISIBILITY.


SDZ001>005-009-010-012>017-210700-
NORTHWEST AND NORTH CENTRAL SOUTH DAKOTA

CITY           SKY/WX    TMP DP  RH WIND       PRES   REMARKS
BUFFALO          N/A     54  42  64 W35       29.39R
FAITH            N/A     63  40  42 NW30G41   29.38R
MOBRIDGE       CLEAR     63  53  70 SE13      29.29S
$$

SDZ012>016-024>037-041>051-057-063-072>074-210700-
SOUTHWEST AND SOUTH CENTRAL SOUTH DAKOTA

CITY           SKY/WX    TMP DP  RH WIND       PRES   REMARKS
RAPID CTY ARPT CLOUDY    61  41  47 N32G41    29.44R
PIERRE         CLEAR     60  53  77 SE7       29.35R
CUSTER         CLOUDY    56  29  35 W20G25    29.59R
ELLSWORTH AFB  CLOUDY    61  40  47 N32G41    29.44
PHILIP         CLOUDY    66  51  58 S13       29.36S
PINE RIDGE     LGT RAIN  66  36  32 W17G32    29.49R
SPEARFISH      FAIR      55  39  54 NW17G31   29.52R
WINNER         FAIR      68  56  65 S23G35    29.40S
$$

SDZ004>011-016>023-039-040-210700-
NORTHEAST SOUTH DAKOTA

CITY           SKY/WX    TMP DP  RH WIND       PRES   REMARKS
ABERDEEN       PTCLDY    66  58  75 S15G25    29.38S
WATERTOWN      CLOUDY    65  58  78 S22G33    29.46F
BROOKINGS      MOCLDY    66  57  72 S28G36    29.51F
SISSETON         N/A     69  59  70 S20G29    29.42S
$$

SDZ017-020-022-023-036>040-048>070-210700-
SOUTHEAST SOUTH DAKOTA

CITY           SKY/WX    TMP DP  RH WIND       PRES   REMARKS
SIOUX FALLS    CLOUDY    68  58  70 S22G32    29.54F
HURON          MOCLDY    68  58  70 S17G26    29.42S
CHAMBERLAIN    CLEAR     69  58  68 S23G35    29.39F
MITCHELL       PTCLDY    69  58  67 S21G32    29.45F
YANKTON        CLOUDY    67  58  72 SE14G23   29.54F
$$

ABBREVIATIONS USED IN REMARKS
   TC - TEMPERATURE IN CELSIUS
  WCI - WIND CHILL INDEX
   HX - HEAT INDEX
  VSB - VISIBILITY




USA.gov is the U.S. government's official web portal to all federal, state and local government web resources and services.